Simultaneous Nadir Overpasses (SNOs) Predictions

Prediction of SNOs between GOES-17 and METOP-A Satellite Orbit:

Table of predicted SNOs for the next 14.0 days since TLE Epoch: 2/26/2022
Index Date Time (GOES-17) GOES-17 Lat,Lon METOP-A Lat,Lon Distance(km) Time Diff (sec)
1 02/27/2022 16:59:51 0.01,-137.21 -0.86,-133.17 458.80 80
2 02/28/2022 05:16:09 -0.02,-137.20 0.01,-137.10 11.38 80
3 02/28/2022 17:35:23 0.02,-137.21 0.85,-141.09 441.44 80
4 03/02/2022 17:01:39 0.02,-137.20 -0.81,-133.47 425.06 80
5 03/03/2022 05:20:25 -0.03,-137.19 -0.04,-137.35 17.22 80
6 03/03/2022 17:37:10 0.03,-137.20 0.94,-141.38 475.30 80
7 03/05/2022 17:03:25 0.02,-137.20 -0.71,-133.76 391.12 80
8 03/06/2022 05:21:59 -0.02,-137.18 -0.13,-137.59 46.17 80
9 03/08/2022 17:05:10 0.02,-137.18 -0.68,-134.05 356.43 80
10 03/09/2022 05:23:34 -0.02,-137.16 -0.19,-137.83 76.48 80
11 03/11/2022 17:09:34 0.02,-137.14 -0.62,-134.33 320.64 80
